Home   Weather   Weimar   Past weeks

Flag for Germany Past Weather in Weimar, Thuringia, Germany — Yesterday and Last 2 Weeks

Now
41 °F

Clear.


Feels Like: 36 °F
Forecast: 36 / 49 °F
Wind: 8 mph from Southwest

Location: Erfurt-Bindersleben

Current Time: Apr 25, 2017 at 4:43:15 am

Latest Report: Apr 25, 2017 at 3:50 am


Visibility: 10 mi

Pressure: 29.65 "Hg

Humidity: 76%

Dew Point: 34 °F

Location of WeimarLocation

Past Weather in Weimar — Graph

°F

Weimar Temperature Yesterday

Maximum temperature yesterday: 57 °F (at 3:20 pm)
Minimum temperature yesterday: 30 °F (at 3:20 am)
Average temperature yesterday: 45 °F

High & Low Weather Summary for the Past Weeks

 TemperatureHumidityPressure
High68 °F (Apr 10, 11:50 am)100% (Apr 15, 5:20 pm)30.57 "Hg (Apr 15, 5:20 pm)
Low27 °F (Apr 20, 5:50 am)39% (Apr 24, 5:20 pm)29.65 "Hg (Apr 25, 2:50 am)
Average43 °F75%30.11 "Hg
* Reported Apr 10 3:20 am — Apr 25 3:20 am, Weimar, Weather by CustomWeather, © 2017

Note: Actual official high and low records may vary slightly from our data, if they occured in-between our weather recording intervals... More about our weather records

Advertising

Weimar Weather History for the Previous 24 Hours

Scroll right to see more
 ConditionsComfort  
Time TempWeatherWind HumidityBarometerVisibility
3:20 am
Tue, Apr 25
39 °FClear.8 mph81%29.65 "Hg10 mi
2:50 am41 °FClear.8 mph76%29.65 "Hg10 mi
2:20 am41 °FClear.7 mph76%29.68 "Hg10 mi
1:50 am43 °FClear.8 mph76%29.68 "Hg10 mi
1:20 am43 °FClear.8 mph76%29.71 "Hg10 mi
12:50 am45 °FClear.8 mph71%29.71 "Hg10 mi
12:20 am45 °FClear.8 mph71%29.74 "Hg10 mi
11:50 pm
Mon, Apr 24
45 °FClear.7 mph71%29.74 "Hg10 mi
11:20 pm46 °FClear.8 mph66%29.74 "Hg10 mi
10:50 pm46 °FClear.8 mph62%29.77 "Hg10 mi
10:20 pm48 °FClear.6 mph58%29.77 "Hg10 mi
9:50 pm46 °FClear.6 mph62%29.77 "Hg10 mi
9:20 pm48 °FClear.7 mph58%29.80 "Hg10 mi
8:50 pm48 °FClear.8 mph62%29.80 "Hg10 mi
8:20 pm50 °FSunny.9 mph58%29.80 "Hg10 mi
7:50 pm52 °FSunny.8 mph54%29.80 "Hg10 mi
7:20 pm55 °FSunny.10 mph47%29.80 "Hg10 mi
6:50 pm55 °FSunny.9 mph47%29.83 "Hg10 mi
6:20 pm55 °FSunny.13 mph44%29.83 "Hg10 mi
5:50 pm57 °FPassing clouds.13 mph41%29.83 "HgN/A
5:20 pm57 °FPassing clouds.13 mph39%29.86 "HgN/A
4:50 pm57 °FSunny.15 mph41%29.86 "Hg10 mi
4:20 pm57 °FPassing clouds.15 mph41%29.86 "HgN/A
3:50 pm57 °FSunny.16 mph44%29.89 "Hg10 mi
3:20 pm57 °FPassing clouds.15 mph41%29.89 "HgN/A
2:50 pm55 °FPassing clouds.14 mph47%29.92 "HgN/A
2:20 pm55 °FPassing clouds.10 mph47%29.92 "HgN/A
1:50 pm54 °FPassing clouds.16 mph51%29.95 "HgN/A
1:20 pm52 °FScattered clouds.15 mph50%29.95 "HgN/A
12:50 pm54 °FScattered clouds.13 mph54%29.98 "HgN/A
12:20 pm52 °FScattered clouds.12 mph54%29.98 "HgN/A
11:50 am50 °FScattered clouds.13 mph54%30.01 "HgN/A
11:20 am48 °FPassing clouds.14 mph54%30.01 "HgN/A
10:50 am48 °FPassing clouds.14 mph54%30.04 "HgN/A
10:20 am48 °FPassing clouds.14 mph58%30.04 "HgN/A
9:50 am46 °FPassing clouds.10 mph62%30.04 "HgN/A
9:20 am43 °FSunny.9 mph71%30.07 "Hg10 mi
8:50 am41 °FSunny.8 mph70%30.07 "Hg10 mi
8:20 am37 °FSunny.9 mph81%30.07 "Hg10 mi
7:50 am36 °FSunny.10 mph81%30.07 "Hg10 mi
7:20 am34 °FSunny.9 mph81%30.09 "Hg10 mi
6:50 am32 °FSunny.9 mph87%30.09 "Hg10 mi
6:20 am30 °FSunny.9 mph86%30.09 "Hg10 mi
5:50 am30 °FClear.9 mph93%30.09 "Hg10 mi
5:20 am30 °FClear.9 mph86%30.09 "Hg10 mi
4:50 am30 °FClear.8 mph93%30.12 "Hg10 mi
4:20 am30 °FClear.8 mph93%30.12 "Hg10 mi
Weather by CustomWeather, © 2017

See weather overviewHow to use our weather pages